Stündliche Wetter Aberchirder

Heute, 24 Juni, Donnerstag

Zeit Temperatur Niederschläge Wind Luftdruck Luftfeuchtigkeit
00:00 +15°C° 0.1 mm 1 m/S 754 mmHg 94%
01:00 +15°C° 0 mm 1 m/S 754 mmHg 94%
02:00 +15°C° 0 mm 1 m/S 753 mmHg 95%
03:00 +15°C° 0 mm 2 m/S 753 mmHg 95%
04:00 +15°C° 0 mm 2 m/S 753 mmHg 93%
05:00 +16°C° 0 mm 2 m/S 752 mmHg 92%
06:00 +17°C° 0 mm 2 m/S 752 mmHg 90%
07:00 +18°C° 0.1 mm 2 m/S 752 mmHg 84%
08:00 +19°C° 0.1 mm 3 m/S 751 mmHg 78%
09:00 +20°C° 0.1 mm 3 m/S 751 mmHg 73%
10:00 +19°C° 0.3 mm 3 m/S 751 mmHg 76%
11:00 +19°C° 0.3 mm 2 m/S 750 mmHg 79%
12:00 +18°C° 0.3 mm 2 m/S 750 mmHg 83%
13:00 +17°C° 0.6 mm 3 m/S 750 mmHg 87%
14:00 +16°C° 0.6 mm 3 m/S 750 mmHg 91%
15:00 +14°C° 0.6 mm 4 m/S 750 mmHg 95%
16:00 +13°C° 0.9 mm 6 m/S 750 mmHg 96%
17:00 +10°C° 0.9 mm 8 m/S 750 mmHg 96%
18:00 +8°C° 0.9 mm 10 m/S 751 mmHg 97%
19:00 +7°C° 0.3 mm 10 m/S 751 mmHg 97%
20:00 +7°C° 0.3 mm 10 m/S 751 mmHg 97%
21:00 +7°C° 0.3 mm 11 m/S 751 mmHg 97%
22:00 +7°C° 0.5 mm 10 m/S 752 mmHg 96%
23:00 +7°C° 0.5 mm 10 m/S 752 mmHg 96%

Morgen, 25 Juni, Freitag

Zeit Temperatur Niederschläge Wind Luftdruck Luftfeuchtigkeit
00:00 +7°C° 0.5 mm 10 m/S 752 mmHg 95%
01:00 +7°C° 0.3 mm 10 m/S 752 mmHg 95%
02:00 +7°C° 0.3 mm 10 m/S 752 mmHg 94%
03:00 +7°C° 0.3 mm 10 m/S 753 mmHg 93%
04:00 +6°C° 0.2 mm 10 m/S 753 mmHg 93%
05:00 +6°C° 0.2 mm 10 m/S 753 mmHg 93%
06:00 +6°C° 0.2 mm 10 m/S 753 mmHg 93%
07:00 +6°C° 0.2 mm 10 m/S 753 mmHg 93%
08:00 +7°C° 0.2 mm 10 m/S 753 mmHg 93%
09:00 +7°C° 0.2 mm 10 m/S 753 mmHg 93%
10:00 +7°C° 0.3 mm 10 m/S 753 mmHg 93%
11:00 +7°C° 0.3 mm 10 m/S 753 mmHg 94%
12:00 +7°C° 0.3 mm 10 m/S 753 mmHg 94%
13:00 +7°C° 0.3 mm 10 m/S 753 mmHg 94%
14:00 +7°C° 0.3 mm 10 m/S 753 mmHg 94%
15:00 +7°C° 0.3 mm 9 m/S 753 mmHg 94%
16:00 +7°C° 0.4 mm 9 m/S 753 mmHg 95%
17:00 +7°C° 0.4 mm 9 m/S 754 mmHg 95%
18:00 +7°C° 0.4 mm 8 m/S 754 mmHg 96%
19:00 +7°C° 0.3 mm 8 m/S 754 mmHg 96%
20:00 +8°C° 0.3 mm 7 m/S 754 mmHg 96%
21:00 +8°C° 0.3 mm 7 m/S 755 mmHg 96%
22:00 +8°C° 0.2 mm 6 m/S 755 mmHg 96%
23:00 +8°C° 0.2 mm 6 m/S 755 mmHg 96%

übermorgen, 26 Juni, Samstag

Zeit Temperatur Niederschläge Wind Luftdruck Luftfeuchtigkeit
00:00 +8°C° 0.2 mm 5 m/S 755 mmHg 96%
01:00 +8°C° 0.1 mm 5 m/S 755 mmHg 96%
02:00 +8°C° 0.1 mm 5 m/S 755 mmHg 96%
03:00 +8°C° 0.1 mm 4 m/S 755 mmHg 95%
04:00 +8°C° 0 mm 4 m/S 755 mmHg 95%
05:00 +8°C° 0 mm 4 m/S 756 mmHg 95%
06:00 +9°C° 0 mm 3 m/S 756 mmHg 94%
07:00 +10°C° 0 mm 3 m/S 756 mmHg 93%
08:00 +10°C° 0 mm 3 m/S 756 mmHg 91%
09:00 +10°C° 0 mm 3 m/S 756 mmHg 89%
10:00 +11°C° 0 mm 3 m/S 756 mmHg 86%
11:00 +11°C° 0 mm 3 m/S 756 mmHg 83%
12:00 +13°C° 0 mm 2 m/S 756 mmHg 79%
13:00 +13°C° 0 mm 2 m/S 755 mmHg 78%
14:00 +13°C° 0 mm 2 m/S 755 mmHg 76%
15:00 +14°C° 0 mm 2 m/S 755 mmHg 74%
16:00 +14°C° 0 mm 1 m/S 755 mmHg 74%
17:00 +14°C° 0 mm 1 m/S 755 mmHg 74%
18:00 +14°C° 0 mm 1 m/S 755 mmHg 74%
19:00 +13°C° 0 mm 1 m/S 755 mmHg 79%
20:00 +12°C° 0 mm 1 m/S 755 mmHg 84%
21:00 +11°C° 0 mm 1 m/S 755 mmHg 89%
22:00 +10°C° 0 mm 1 m/S 755 mmHg 90%
23:00 +10°C° 0 mm 1 m/S 754 mmHg 91%

27 Juni, Sonntag

Zeit Temperatur Niederschläge Wind Luftdruck Luftfeuchtigkeit
00:00 +10°C° 0 mm 1 m/S 754 mmHg 92%
01:00 +10°C° 0 mm 1 m/S 754 mmHg 92%
02:00 +10°C° 0 mm 1 m/S 754 mmHg 92%
03:00 +10°C° 0 mm 1 m/S 753 mmHg 93%
04:00 +11°C° 0 mm 1 m/S 753 mmHg 90%
05:00 +12°C° 0 mm 1 m/S 753 mmHg 88%
06:00 +11°C° 0 mm 0 m/S 753 mmHg 86%
07:00 +13°C° 0 mm 1 m/S 753 mmHg 83%
08:00 +14°C° 0 mm 1 m/S 753 mmHg 81%
09:00 +15°C° 0 mm 1 m/S 753 mmHg 78%
10:00 +18°C° 0 mm 1 m/S 753 mmHg 74%
11:00 +19°C° 0 mm 1 m/S 752 mmHg 70%
12:00 +20°C° 0 mm 1 m/S 752 mmHg 66%
13:00 +19°C° 0 mm 2 m/S 752 mmHg 67%
14:00 +19°C° 0 mm 2 m/S 752 mmHg 69%
15:00 +19°C° 0 mm 3 m/S 752 mmHg 70%
16:00 +19°C° 0 mm 3 m/S 752 mmHg 71%
17:00 +19°C° 0 mm 2 m/S 752 mmHg 73%
18:00 +19°C° 0 mm 2 m/S 752 mmHg 74%
19:00 +17°C° 0 mm 2 m/S 752 mmHg 80%
20:00 +16°C° 0 mm 1 m/S 752 mmHg 86%
21:00 +14°C° 0 mm 1 m/S 752 mmHg 92%
22:00 +13°C° 0 mm 1 m/S 752 mmHg 92%
23:00 +13°C° 0 mm 1 m/S 752 mmHg 92%

28 Juni, Montag

Zeit Temperatur Niederschläge Wind Luftdruck Luftfeuchtigkeit
00:00 +12°C° 0 mm 1 m/S 752 mmHg 92%
01:00 +12°C° 0 mm 1 m/S 752 mmHg 91%
02:00 +12°C° 0 mm 1 m/S 752 mmHg 90%
03:00 +12°C° 0 mm 1 m/S 752 mmHg 89%
04:00 +13°C° 0 mm 1 m/S 752 mmHg 86%
05:00 +14°C° 0 mm 1 m/S 752 mmHg 83%
06:00 +14°C° 0 mm 1 m/S 752 mmHg 80%
07:00 +16°C° 0 mm 1 m/S 752 mmHg 76%
08:00 +18°C° 0 mm 1 m/S 752 mmHg 71%
09:00 +19°C° 0 mm 1 m/S 752 mmHg 66%
10:00 +20°C° 0 mm 1 m/S 752 mmHg 64%
11:00 +21°C° 0 mm 1 m/S 752 mmHg 62%
12:00 +22°C° 0 mm 1 m/S 752 mmHg 59%
13:00 +22°C° 0 mm 1 m/S 752 mmHg 60%
14:00 +21°C° 0 mm 2 m/S 752 mmHg 61%
15:00 +21°C° 0 mm 2 m/S 752 mmHg 61%
16:00 +21°C° 0 mm 2 m/S 752 mmHg 66%
17:00 +20°C° 0 mm 2 m/S 752 mmHg 70%
18:00 +20°C° 0 mm 2 m/S 752 mmHg 74%
19:00 +18°C° 0 mm 2 m/S 752 mmHg 79%
20:00 +18°C° 0 mm 1 m/S 752 mmHg 84%
21:00 +15°C° 0 mm 1 m/S 753 mmHg 88%
22:00 +15°C° 0 mm 1 m/S 753 mmHg 87%
23:00 +14°C° 0 mm 2 m/S 753 mmHg 85%

29 Juni, Dienstag

Zeit Temperatur Niederschläge Wind Luftdruck Luftfeuchtigkeit
00:00 +14°C° 0 mm 2 m/S 753 mmHg 84%
01:00 +13°C° 0 mm 2 m/S 753 mmHg 83%
02:00 +13°C° 0 mm 2 m/S 753 mmHg 83%
03:00 +12°C° 0 mm 2 m/S 753 mmHg 83%
04:00 +13°C° 0 mm 2 m/S 753 mmHg 82%
05:00 +14°C° 0 mm 2 m/S 754 mmHg 80%
06:00 +15°C° 0 mm 1 m/S 754 mmHg 79%
07:00 +16°C° 0 mm 1 m/S 754 mmHg 73%
08:00 +17°C° 0 mm 2 m/S 754 mmHg 67%
09:00 +19°C° 0 mm 2 m/S 755 mmHg 61%
10:00 +20°C° 0 mm 2 m/S 755 mmHg 57%
11:00 +21°C° 0 mm 2 m/S 755 mmHg 54%
12:00 +23°C° 0 mm 2 m/S 755 mmHg 50%
13:00 +21°C° 0 mm 2 m/S 755 mmHg 52%
14:00 +21°C° 0 mm 2 m/S 755 mmHg 54%
15:00 +21°C° 0 mm 2 m/S 755 mmHg 55%
16:00 +20°C° 0 mm 2 m/S 755 mmHg 61%
17:00 +20°C° 0 mm 2 m/S 755 mmHg 67%
18:00 +19°C° 0 mm 3 m/S 755 mmHg 73%
19:00 +18°C° 0 mm 2 m/S 756 mmHg 78%
20:00 +17°C° 0 mm 2 m/S 756 mmHg 83%
21:00 +15°C° 0 mm 2 m/S 756 mmHg 87%
22:00 +15°C° 0 mm 2 m/S 756 mmHg 89%
23:00 +14°C° 0 mm 2 m/S 756 mmHg 90%
Mehr zeigen

Wir brauchen deine Erlaubnis

Meteoprog und unser Service Anbieter werden persönliche Daten aufbewahren, so wie Cookies, Geräte Bezeichnung oder ähnliche Technologien von deinem Gerät und Prozess, so wie Persönliche Daten Inhalte und Werbungen, genauso wie social Media und den Verkehr zu analysieren.

  • Aufbewahrung und/oder Zugang zu deiner Geräte Informationen.

    Cookies, Geräte Bezeichnung oder andere Informationen, können aufbewahrt oder Zugang zu deinem Gerät erhalten, für den Grund, der oben angegeben wird.

  • Personalisierte Werbung und Inhalte, Messungen, Einblick in das Publikum und Produkt Entwicklung.

    Werbungen und Inhalte können personalisiert werden, basierend auf ein Profil. Mehr Daten können besser personalisierte Werbungen und Inhalte hinzufügen. Werbung und Inhalte können gezeigt und gemessen werden. Einblicke über das Publikum, welche die Werbung gesehen haben und den Inhalt, können abgeleitet werden. So wie Daten können genutzt werden, um es zu verbessern oder die Benutzer Erfahrung zu verbessern das System und die Software.

Wenn du “Ich stimme zu” klickst, erlaubst du uns, die Cookies zu benutzen die Geräte Bezeichnung, den Web oder ähnliche Technologien zu benutzen. Deine Settings, können in deinem Gerät bei deinem Browser geändert werden.

Für den bestimmten Zweck, berechtigten Interessen beruhen darauf, mehr als auf den Inhalt. Du kannst mehr darüber in unseren Privaten und Cookie Politik lesen.